CZ-3C DEB, 40194

Orbit data source: Space-Track

CZ-3C DEB, 40194 is space debris in HEO originally from a launch on Fri, 24 Feb 2012 UTC launched from the Xichang Space Center, China (XSC). Debris objects in space refer to the collection of defunct objects orbiting the Earth. Examples of debris include non-operational satellites, rocket bodies, and fragments generated from explosions, collisions, or faulty payload assembly.

Loading next visibility...
Identifier
40194, 2012-008D
Orbit
HEO
Country
Flag of CNCN / PRC
Related business
Manufacturer
CALT
Mission
Spacecraft
Bus & Motor
Unknown
Mass
Unknown
Launch date (UTC)
2012-02-24 (14 years ago)
Launch vehicle
Unknown
Launch site
Xichang Space Center, China (XSC)
Object type
Payload
Rocket body
Debris
Shape & HBR
Unknown shape, 1.1 m
Radar Cross Section
Medium (>0.1 m² and <1 m²)

Expand to show TLE details & history
Last TLE update: 3 days ago

TLE from 3 days ago
0 CZ-3C DEB
1 40194U 12008D   26170.34366929 -.00000205  00000-0  00000-0 0  9995
2 40194  20.9614 341.4656 6438102  66.5645 346.7927  2.13021309 97956
Epoch: 2026-06-19T08:14Z
TLE epoch observation values (Epoch: 2026-06-19T08:14:53.026Z)
Latitude
0.00005°
Longitude
-49.84189°
Altitude
5,516.181 km
Speed
7.169 km/s
True Right ascension
22h 45m 48s
True Declination
0° 00' 00"
Sunlit
Object was in daylight at epoch
Visualization orbit readout
Latitude
Unknown
Longitude
Unknown
Altitude
Unknown
Speed
Unknown
Apparent Right ascension
Unknown
Apparent Declination
Unknown
Sunlit
N/A
Visualization observer readout
Local Sidereal Time
21:40:29
Azimuth
Unknown
Elevation
Unknown
Doppler factor
Unknown
Orbital elements
Apogee altitude
35,567.945 km
Perigee altitude
2,710.97 km
Semi-major axis
25,517.595 km
Eccentricity
0.64381
Inclination
20.9614°
RAAN
341.4656°
Arg. of periapsis
66.5645°
True anomaly
293.99228°
Mean anomaly
346.7927°
Eccentric anomaly
326.35561°
Mean motion
0.53246 °/min
Orbital period
676.11 mins
BSTAR
0
Loading maneuver chart data...
Computing Atmospheric mass density...
Loading historical data...
Loading historical data...
Loading historical data...
Loading historical data...
Loading historical data...
Loading historical data...
Loading historical data...

Documentation

Showing up to 5 results
|